Location: Unspecified
(0.0000°N, 0.0000°E)
Time: 23:54:08
(UTC+00:00)

Vanguard 3 - Pass Details

Date: 11 December 2017
Orbit: 508 x 3264 km, 33.3° (Epoch: 22 July)

Event Time Altitude Azimuth Distance (km) Brightness Sun altitude
Rises 10:35:46 0° 257° (WSW) 4,745 10.9 60.2°
Reaches altitude 10° 10:40:25 10° 270° (W) 3,216 10.1 60.9°
Maximum altitude 10:45:46 21° 316° (NW) 1,939 9.1 61.7°
Drops below altitude 10° 10:49:36 10° 6° (N) 2,200 9.3 62.2°
Sets 10:52:06 0° 24° (NNE) 2,892 9.8 62.6°
